Location: Drocourt
(49.0571°N, 1.7669°E)
Time: 21:13:19
(UTC+00:00)

Transit 4A - Pass Details

Date: 19 April 2024
Orbit: 871 x 971 km, 66.8° (Epoch: 18 May)

Event Time Altitude Azimuth Distance (km) Brightness Sun altitude
Rises 13:09:00 0° 213° (SSW) 3,534 11.6 49.1°
Reaches altitude 10° 13:11:32 10° 213° (SSW) 2,581 11.2 48.9°
Maximum altitude 13:17:31 89° 126° (SE) 897 8.8 48.4°
Drops below altitude 10° 13:23:25 10° 36° (NE) 2,542 9.9 47.9°
Sets 13:25:53 0° 36° (NE) 3,477 10.5 47.7°
